Location: ?????
(31.8092°N, 35.2590°E)
Time: 04:02:06
(UTC+00:00)

Lacrosse 5 - Pass Details

Date: 29 October 2021
Orbit: 714 x 724 km, 57.0° (Epoch: 28 August)

Event Time Altitude Azimuth Distance (km) Brightness Sun altitude
Rises 18:03:51 0° 273° (W) 3,131 6.0 -41.2°
Reaches altitude 10° 18:07:51 10° 303° (WNW) 2,213 4.9 -42.0°
Enters shadow 18:08:08 11° 306° (NW) 2,176 4.9 -42.1°
